Time,TemperatureF,DewpointF,PressureIn,WindDirection,WindDirectionDegrees,WindSpeedMPH,WindSpeedGustMPH,Humidity,HourlyPrecipIn,Conditions,Clouds,dailyrainin,SolarRadiationWatts/m^2,SoftwareType,DateUTC
2013-08-04 00:02:00,83.0,48.0,-100.00,WNW,284,6.0,10.0,29,-99.99,,,-99.99,0.000000,,2013-08-04 06:02:00,
2013-08-04 00:12:00,83.0,47.0,-100.00,WNW,286,8.0,11.0,28,-99.99,,,-99.99,0.000000,,2013-08-04 06:12:00,
2013-08-04 00:22:00,82.0,47.0,-100.00,WNW,293,8.0,11.0,29,-99.99,,,-99.99,0.000000,,2013-08-04 06:22:00,
2013-08-04 00:32:00,82.0,47.0,-100.00,WNW,293,8.0,11.0,29,-99.99,,,-99.99,0.000000,,2013-08-04 06:32:00,
2013-08-04 00:43:00,82.0,47.0,-100.00,WNW,291,9.0,12.0,29,-99.99,,,-99.99,0.000000,,2013-08-04 06:43:00,
2013-08-04 01:02:00,82.0,47.0,-100.00,WNW,293,8.0,11.0,30,-99.99,,,-99.99,0.000000,,2013-08-04 07:02:00,
2013-08-04 01:12:00,81.0,48.0,-100.00,WNW,293,8.0,10.0,31,-99.99,,,-99.99,0.000000,,2013-08-04 07:12:00,
2013-08-04 01:22:00,81.0,47.0,-100.00,WNW,296,9.0,11.0,30,-99.99,,,-99.99,0.000000,,2013-08-04 07:22:00,
2013-08-04 01:32:00,81.0,47.0,-100.00,WNW,296,9.0,11.0,30,-99.99,,,-99.99,0.000000,,2013-08-04 07:32:00,
2013-08-04 01:43:00,81.0,46.0,-100.00,WNW,301,9.0,11.0,29,-99.99,,,-99.99,0.000000,,2013-08-04 07:43:00,
2013-08-04 02:02:00,81.0,46.0,-100.00,WNW,296,8.0,10.0,29,-99.99,,,-99.99,0.000000,,2013-08-04 08:02:00,
2013-08-04 02:12:00,81.0,46.0,-100.00,WNW,301,7.0,9.0,28,-99.99,,,-99.99,0.000000,,2013-08-04 08:12:00,
2013-08-04 02:22:00,82.0,45.0,-100.00,NNW,334,8.0,13.0,27,-99.99,,,-99.99,0.000000,,2013-08-04 08:22:00,
2013-08-04 02:32:00,82.0,45.0,-100.00,NNW,334,8.0,13.0,27,-99.99,,,-99.99,0.000000,,2013-08-04 08:32:00,
2013-08-04 02:43:00,80.0,46.0,-100.00,North,357,10.0,14.0,29,-99.99,,,-99.99,0.000000,,2013-08-04 08:43:00,
2013-08-04 02:53:00,82.0,45.0,-100.00,NNW,347,10.0,15.0,27,-99.99,,,-99.99,0.000000,,2013-08-04 08:53:00,
2013-08-04 03:02:00,82.0,45.0,-100.00,NNW,347,10.0,15.0,27,-99.99,,,-99.99,0.000000,,2013-08-04 09:02:00,
2013-08-04 03:12:00,81.0,48.0,-100.00,NNE,20,7.0,12.0,30,-99.99,,,-99.99,0.000000,,2013-08-04 09:12:00,
2013-08-04 03:22:00,77.0,51.0,-100.00,North,5,5.0,7.0,41,-99.99,,,-99.99,0.000000,,2013-08-04 09:22:00,
2013-08-04 03:32:00,77.0,51.0,-100.00,North,5,5.0,7.0,41,-99.99,,,-99.99,0.000000,,2013-08-04 09:32:00,
2013-08-04 03:43:00,77.0,51.0,-100.00,NW,320,6.0,8.0,41,-99.99,,,-99.99,0.000000,,2013-08-04 09:43:00,
2013-08-04 04:02:00,77.0,51.0,-100.00,NNW,327,8.0,10.0,39,-99.99,,,-99.99,0.000000,,2013-08-04 10:02:00,
2013-08-04 04:12:00,79.0,49.0,-100.00,NW,314,7.0,11.0,36,-99.99,,,-99.99,0.000000,,2013-08-04 10:12:00,
2013-08-04 04:22:00,80.0,48.0,-100.00,NW,318,4.0,8.0,33,-99.99,,,-99.99,0.000000,,2013-08-04 10:22:00,
2013-08-04 04:32:00,80.0,48.0,-100.00,NW,318,4.0,8.0,33,-99.99,,,-99.99,0.000000,,2013-08-04 10:32:00,
2013-08-04 04:43:00,79.0,49.0,-100.00,NW,304,1.0,3.0,35,-99.99,,,-99.99,0.000000,,2013-08-04 10:43:00,
2013-08-04 04:53:00,78.0,50.0,-100.00,NW,319,5.0,7.0,37,-99.99,,,-99.99,0.000000,,2013-08-04 10:53:00,
2013-08-04 05:02:00,78.0,50.0,-100.00,NW,319,5.0,7.0,37,-99.99,,,-99.99,0.000000,,2013-08-04 11:02:00,
2013-08-04 05:12:00,77.0,51.0,-100.00,NW,318,6.0,8.0,39,-99.99,,,-99.99,0.000000,,2013-08-04 11:12:00,
2013-08-04 05:22:00,78.0,50.0,-100.00,NW,313,7.0,9.0,37,-99.99,,,-99.99,0.000000,,2013-08-04 11:22:00,
2013-08-04 05:32:00,78.0,50.0,-100.00,NW,313,7.0,9.0,37,-99.99,,,-99.99,0.000000,,2013-08-04 11:32:00,
2013-08-04 05:42:00,78.0,51.0,-100.00,NW,313,7.0,8.0,38,-99.99,,,-99.99,0.000000,,2013-08-04 11:42:00,
2013-08-04 05:53:00,77.0,51.0,-100.00,NW,326,5.0,7.0,39,-99.99,,,-99.99,0.000000,,2013-08-04 11:53:00,
2013-08-04 06:02:00,77.0,51.0,-100.00,NW,326,5.0,7.0,39,-99.99,,,-99.99,0.000000,,2013-08-04 12:02:00,
2013-08-04 06:12:00,77.0,50.0,-100.00,WNW,288,4.0,6.0,38,-99.99,,,-99.99,0.000000,,2013-08-04 12:12:00,
2013-08-04 06:22:00,76.0,51.0,-100.00,West,277,1.0,4.0,40,-99.99,,,-99.99,0.000000,,2013-08-04 12:22:00,
2013-08-04 06:32:00,76.0,51.0,-100.00,West,277,1.0,4.0,40,-99.99,,,-99.99,0.000000,,2013-08-04 12:32:00,
2013-08-04 06:43:00,77.0,51.0,-100.00,NNW,337,3.0,7.0,39,-99.99,,,-99.99,0.000000,,2013-08-04 12:43:00,
2013-08-04 07:02:00,74.0,52.0,-100.00,NW,324,7.0,8.0,45,-99.99,,,-99.99,2.090000,,2013-08-04 13:02:00,
2013-08-04 07:12:00,75.0,52.0,-100.00,NW,317,7.0,9.0,43,-99.99,,,-99.99,6.970000,,2013-08-04 13:12:00,
2013-08-04 07:22:00,77.0,52.0,-100.00,NW,321,5.0,7.0,41,-99.99,,,-99.99,10.460000,,2013-08-04 13:22:00,
2013-08-04 07:32:00,77.0,52.0,-100.00,NW,321,5.0,7.0,41,-99.99,,,-99.99,10.460000,,2013-08-04 13:32:00,
2013-08-04 07:42:00,76.0,52.0,-100.00,NW,315,6.0,7.0,43,-99.99,,,-99.99,16.740000,,2013-08-04 13:42:00,
2013-08-04 07:52:00,77.0,53.0,-100.00,NW,315,4.0,6.0,43,-99.99,,,-99.99,22.309999,,2013-08-04 13:52:00,
2013-08-04 08:02:00,77.0,53.0,-100.00,NW,315,4.0,6.0,43,-99.99,,,-99.99,22.309999,,2013-08-04 14:02:00,
2013-08-04 08:12:00,78.0,53.0,-100.00,NW,319,3.0,4.0,42,-99.99,,,-99.99,27.889999,,2013-08-04 14:12:00,
2013-08-04 08:22:00,78.0,54.0,-100.00,NW,324,2.0,4.0,42,-99.99,,,-99.99,77.400002,,2013-08-04 14:22:00,
2013-08-04 08:32:00,78.0,54.0,-100.00,NW,324,2.0,4.0,42,-99.99,,,-99.99,77.400002,,2013-08-04 14:32:00,
2013-08-04 08:43:00,79.0,53.0,-100.00,ESE,111,4.0,11.0,39,-99.99,,,-99.99,179.210007,,2013-08-04 14:43:00,
2013-08-04 08:53:00,78.0,53.0,-100.00,NE,54,4.0,7.0,41,-99.99,,,-99.99,119.239998,,2013-08-04 14:53:00,
2013-08-04 09:02:00,78.0,53.0,-100.00,NE,54,4.0,7.0,41,-99.99,,,-99.99,119.239998,,2013-08-04 15:02:00,
2013-08-04 09:12:00,78.0,52.0,-100.00,NNE,27,3.0,6.0,40,-99.99,,,-99.99,93.440002,,2013-08-04 15:12:00,
2013-08-04 09:22:00,79.0,52.0,-100.00,ENE,62,1.0,2.0,38,-99.99,,,-99.99,91.349998,,2013-08-04 15:22:00,
2013-08-04 09:32:00,79.0,52.0,-100.00,ENE,62,1.0,2.0,38,-99.99,,,-99.99,91.349998,,2013-08-04 15:32:00,
2013-08-04 09:42:00,80.0,52.0,-100.00,NNE,33,2.0,5.0,38,-99.99,,,-99.99,129.009995,,2013-08-04 15:42:00,
2013-08-04 10:02:00,80.0,52.0,-100.00,NNE,23,6.0,10.0,38,-99.99,,,-99.99,152.020004,,2013-08-04 16:02:00,
2013-08-04 10:12:00,81.0,51.0,-100.00,NE,37,4.0,8.0,35,-99.99,,,-99.99,193.160004,,2013-08-04 16:12:00,
2013-08-04 10:22:00,83.0,50.0,-100.00,East,85,1.0,3.0,31,-99.99,,,-99.99,182.699997,,2013-08-04 16:22:00,
2013-08-04 10:33:00,83.0,50.0,-100.00,East,85,1.0,3.0,31,-99.99,,,-99.99,182.699997,,2013-08-04 16:33:00,
2013-08-04 10:42:00,83.0,50.0,-100.00,SE,127,4.0,9.0,32,-99.99,,,-99.99,180.610001,,2013-08-04 16:42:00,
2013-08-04 10:53:00,82.0,54.0,-100.00,SE,125,6.0,10.0,38,-99.99,,,-99.99,450.480011,,2013-08-04 16:53:00,
2013-08-04 11:02:00,82.0,54.0,-100.00,SE,125,6.0,10.0,38,-99.99,,,-99.99,450.480011,,2013-08-04 17:02:00,
2013-08-04 11:12:00,84.0,53.0,-100.00,SSE,148,4.0,9.0,34,-99.99,,,-99.99,767.070007,,2013-08-04 17:12:00,
2013-08-04 11:22:00,85.0,52.0,-100.00,SSE,155,4.0,9.0,32,-99.99,,,-99.99,870.969971,,2013-08-04 17:22:00,
2013-08-04 11:32:00,85.0,52.0,-100.00,SSE,155,4.0,9.0,32,-99.99,,,-99.99,870.969971,,2013-08-04 17:32:00,
2013-08-04 11:43:00,83.0,53.0,-100.00,SE,124,5.0,11.0,35,-99.99,,,-99.99,288.700012,,2013-08-04 17:43:00,
2013-08-04 11:53:00,84.0,53.0,-100.00,SE,135,5.0,9.0,33,-99.99,,,-99.99,720.349976,,2013-08-04 17:53:00,
2013-08-04 12:02:00,84.0,53.0,-100.00,SE,135,5.0,9.0,33,-99.99,,,-99.99,720.349976,,2013-08-04 18:02:00,
2013-08-04 12:12:00,84.0,53.0,-100.00,SSE,166,5.0,9.0,34,-99.99,,,-99.99,543.919983,,2013-08-04 18:12:00,
2013-08-04 12:22:00,85.0,53.0,-100.00,SE,141,4.0,10.0,33,-99.99,,,-99.99,775.429993,,2013-08-04 18:22:00,
2013-08-04 12:33:00,85.0,53.0,-100.00,SE,141,4.0,10.0,33,-99.99,,,-99.99,775.429993,,2013-08-04 18:33:00,
2013-08-04 12:43:00,86.0,52.0,-100.00,SSE,165,6.0,10.0,31,-99.99,,,-99.99,840.979980,,2013-08-04 18:43:00,
2013-08-04 12:52:00,87.0,50.0,-100.00,South,184,4.0,11.0,28,-99.99,,,-99.99,854.929993,,2013-08-04 18:52:00,
2013-08-04 13:02:00,87.0,50.0,-100.00,South,184,4.0,11.0,28,-99.99,,,-99.99,854.929993,,2013-08-04 19:02:00,
2013-08-04 13:12:00,88.0,50.0,-100.00,South,174,3.0,9.0,27,-99.99,,,-99.99,854.929993,,2013-08-04 19:12:00,
2013-08-04 13:22:00,88.0,48.0,-100.00,South,171,5.0,10.0,24,-99.99,,,-99.99,810.299988,,2013-08-04 19:22:00,
2013-08-04 13:32:00,88.0,48.0,-100.00,South,171,5.0,10.0,24,-99.99,,,-99.99,810.299988,,2013-08-04 19:32:00,
2013-08-04 13:43:00,89.0,47.0,-100.00,South,170,4.0,10.0,23,-99.99,,,-99.99,872.359985,,2013-08-04 19:43:00,
2013-08-04 13:53:00,89.0,49.0,-100.00,SSW,193,5.0,11.0,25,-99.99,,,-99.99,836.099976,,2013-08-04 19:53:00,
2013-08-04 14:02:00,89.0,49.0,-100.00,SSW,193,5.0,11.0,25,-99.99,,,-99.99,836.099976,,2013-08-04 20:02:00,
2013-08-04 14:12:00,90.0,49.0,-100.00,SSW,211,5.0,12.0,25,-99.99,,,-99.99,870.270020,,2013-08-04 20:12:00,
2013-08-04 14:22:00,90.0,49.0,-100.00,SSE,164,7.0,13.0,24,-99.99,,,-99.99,836.799988,,2013-08-04 20:22:00,
2013-08-04 14:33:00,90.0,49.0,-100.00,SSE,164,7.0,13.0,24,-99.99,,,-99.99,836.799988,,2013-08-04 20:33:00,
2013-08-04 14:42:00,90.0,47.0,-100.00,SSW,202,4.0,11.0,22,-99.99,,,-99.99,739.169983,,2013-08-04 20:42:00,
2013-08-04 14:53:00,91.0,45.0,-100.00,SSW,195,5.0,12.0,20,-99.99,,,-99.99,854.929993,,2013-08-04 20:53:00,
2013-08-04 15:02:00,91.0,45.0,-100.00,SSW,195,5.0,12.0,20,-99.99,,,-99.99,854.929993,,2013-08-04 21:02:00,
2013-08-04 15:12:00,92.0,44.0,-100.00,South,183,6.0,13.0,19,-99.99,,,-99.99,798.450012,,2013-08-04 21:12:00,
2013-08-04 15:22:00,92.0,44.0,-100.00,South,189,7.0,14.0,19,-99.99,,,-99.99,838.190002,,2013-08-04 21:22:00,
2013-08-04 15:32:00,92.0,44.0,-100.00,South,189,7.0,14.0,19,-99.99,,,-99.99,838.190002,,2013-08-04 21:32:00,
2013-08-04 15:43:00,92.0,44.0,-100.00,SW,215,6.0,17.0,19,-99.99,,,-99.99,822.159973,,2013-08-04 21:43:00,
2013-08-04 16:12:00,93.0,43.0,-100.00,South,183,5.0,14.0,18,-99.99,,,-99.99,758.000000,,2013-08-04 22:12:00,
2013-08-04 16:22:00,93.0,43.0,-100.00,SSE,166,6.0,17.0,17,-99.99,,,-99.99,665.260010,,2013-08-04 22:22:00,
2013-08-04 16:32:00,93.0,43.0,-100.00,SSE,166,6.0,17.0,17,-99.99,,,-99.99,665.260010,,2013-08-04 22:32:00,
2013-08-04 16:43:00,93.0,42.0,-100.00,South,183,7.0,13.0,17,-99.99,,,-99.99,580.880005,,2013-08-04 22:43:00,
2013-08-04 16:53:00,93.0,42.0,-100.00,SSW,196,3.0,10.0,16,-99.99,,,-99.99,685.479980,,2013-08-04 22:53:00,
2013-08-04 17:02:00,93.0,42.0,-100.00,SSW,196,3.0,10.0,16,-99.99,,,-99.99,685.479980,,2013-08-04 23:02:00,
2013-08-04 17:12:00,93.0,42.0,-100.00,South,176,8.0,17.0,17,-99.99,,,-99.99,687.570007,,2013-08-04 23:12:00,
2013-08-04 17:32:00,93.0,41.0,-100.00,SE,130,5.0,15.0,16,-99.99,,,-99.99,462.329987,,2013-08-04 23:32:00,
2013-08-04 17:43:00,92.0,43.0,-100.00,SSE,147,9.0,14.0,18,-99.99,,,-99.99,199.440002,,2013-08-04 23:43:00,
2013-08-04 17:53:00,91.0,46.0,-100.00,SSE,150,11.0,19.0,20,-99.99,,,-99.99,149.229996,,2013-08-04 23:53:00,
2013-08-04 18:02:00,91.0,46.0,-100.00,SSE,150,11.0,19.0,20,-99.99,,,-99.99,149.229996,,2013-08-05 00:02:00,
2013-08-04 18:12:00,91.0,48.0,-100.00,SSE,158,11.0,17.0,23,-99.99,,,-99.99,375.859985,,2013-08-05 00:12:00,
2013-08-04 18:22:00,91.0,47.0,-100.00,SSE,159,10.0,15.0,22,-99.99,,,-99.99,372.380005,,2013-08-05 00:22:00,
2013-08-04 18:32:00,91.0,47.0,-100.00,SSE,159,10.0,15.0,22,-99.99,,,-99.99,372.380005,,2013-08-05 00:32:00,
2013-08-04 18:42:00,91.0,47.0,-100.00,SSE,166,8.0,13.0,21,-99.99,,,-99.99,198.740005,,2013-08-05 00:42:00,
2013-08-04 19:02:00,90.0,47.0,-100.00,South,181,6.0,10.0,22,-99.99,,,-99.99,147.830002,,2013-08-05 01:02:00,
2013-08-04 19:12:00,90.0,47.0,-100.00,SSE,167,7.0,11.0,22,-99.99,,,-99.99,101.110001,,2013-08-05 01:12:00,
2013-08-04 19:33:00,90.0,47.0,-100.00,SSE,165,6.0,9.0,23,-99.99,,,-99.99,126.220001,,2013-08-05 01:33:00,
2013-08-04 19:42:00,90.0,47.0,-100.00,South,176,5.0,9.0,23,-99.99,,,-99.99,129.699997,,2013-08-05 01:42:00,
2013-08-04 19:52:00,89.0,48.0,-100.00,South,188,5.0,7.0,24,-99.99,,,-99.99,69.730003,,2013-08-05 01:52:00,
2013-08-04 20:02:00,89.0,48.0,-100.00,South,188,5.0,7.0,24,-99.99,,,-99.99,69.730003,,2013-08-05 02:02:00,
2013-08-04 20:12:00,88.0,48.0,-100.00,SW,226,3.0,6.0,25,-99.99,,,-99.99,17.430000,,2013-08-05 02:12:00,
2013-08-04 20:22:00,87.0,49.0,-100.00,WSW,251,2.0,4.0,27,-99.99,,,-99.99,6.280000,,2013-08-05 02:22:00,
2013-08-04 20:33:00,87.0,49.0,-100.00,WSW,251,2.0,4.0,27,-99.99,,,-99.99,6.280000,,2013-08-05 02:33:00,
2013-08-04 20:43:00,85.0,49.0,-100.00,WSW,256,3.0,6.0,28,-99.99,,,-99.99,1.390000,,2013-08-05 02:43:00,
2013-08-04 21:02:00,85.0,47.0,-100.00,West,267,5.0,6.0,26,-99.99,,,-99.99,0.000000,,2013-08-05 03:02:00,
2013-08-04 21:12:00,85.0,49.0,-100.00,WNW,293,4.0,6.0,28,-99.99,,,-99.99,0.000000,,2013-08-05 03:12:00,
2013-08-04 21:22:00,84.0,50.0,-100.00,WNW,302,5.0,6.0,30,-99.99,,,-99.99,0.000000,,2013-08-05 03:22:00,
2013-08-04 21:32:00,84.0,50.0,-100.00,WNW,302,5.0,6.0,30,-99.99,,,-99.99,0.000000,,2013-08-05 03:32:00,
2013-08-04 21:42:00,83.0,49.0,-100.00,NW,306,4.0,6.0,30,-99.99,,,-99.99,0.000000,,2013-08-05 03:42:00,
2013-08-04 21:53:00,83.0,48.0,-100.00,NW,318,4.0,6.0,29,-99.99,,,-99.99,0.000000,,2013-08-05 03:53:00,
2013-08-04 22:02:00,83.0,48.0,-100.00,NW,318,4.0,6.0,29,-99.99,,,-99.99,0.000000,,2013-08-05 04:02:00,
2013-08-04 22:12:00,82.0,49.0,-100.00,NNW,336,5.0,8.0,31,-99.99,,,-99.99,0.000000,,2013-08-05 04:12:00,
2013-08-04 22:22:00,82.0,47.0,-100.00,NNW,339,7.0,8.0,29,-99.99,,,-99.99,0.000000,,2013-08-05 04:22:00,
2013-08-04 22:32:00,82.0,47.0,-100.00,NNW,339,7.0,8.0,29,-99.99,,,-99.99,0.000000,,2013-08-05 04:32:00,
2013-08-04 22:43:00,82.0,48.0,-100.00,NW,325,6.0,8.0,30,-99.99,,,-99.99,0.000000,,2013-08-05 04:43:00,
2013-08-04 22:52:00,80.0,48.0,-100.00,NW,319,7.0,8.0,32,-99.99,,,-99.99,0.000000,,2013-08-05 04:52:00,
2013-08-04 23:02:00,80.0,48.0,-100.00,NW,319,7.0,8.0,32,-99.99,,,-99.99,0.000000,,2013-08-05 05:02:00,
2013-08-04 23:12:00,81.0,48.0,-100.00,NW,319,4.0,7.0,31,-99.99,,,-99.99,0.000000,,2013-08-05 05:12:00,
2013-08-04 23:22:00,82.0,47.0,-100.00,NW,321,3.0,4.0,29,-99.99,,,-99.99,0.000000,,2013-08-05 05:22:00,
2013-08-04 23:32:00,82.0,47.0,-100.00,NW,321,3.0,4.0,29,-99.99,,,-99.99,0.000000,,2013-08-05 05:32:00,
2013-08-04 23:43:00,82.0,47.0,-100.00,NNW,329,4.0,6.0,29,-99.99,,,-99.99,0.000000,,2013-08-05 05:43:00,
2013-08-04 23:53:00,81.0,47.0,-100.00,NW,326,6.0,8.0,29,-99.99,,,-99.99,0.000000,,2013-08-05 05:53:00,